Voltar ao catálogo

THORAD AGENA D DEB

AtivoLEO
NORAD 5758·DEBRIS·🇺🇸 United States

Lançado Sep 30, 1969 de Vandenberg Space Force Base

Loading…

Próximas Passagens (próximas 24 horas)

TLE

AtualizadoSource: Space-Track

Época: Sep 14, 2026, 04:05 UTC

1 05758U 69082JS  26257.17018654  .00000003  00000-0  52154-4 0  9998
2 05758  69.8076 313.0349 0047387 236.8330 153.3262 13.80994205875766

Acompanhe THORAD AGENA D DEB em tempo real com AllMySat

Download on the App Store